Waukesha, WI

7:43 PM CDT on October 17, 2017 (GMT -0500)
Waukesha County

Weather History for KUES - February, 2014

Change the Weather History Date:

Wednesday, February 12, 2014

  Actual Average Record
Temperature  
Mean Temperature 8 °F -  
Max Temperature 17 °F 30 °F 52 °F (1976)
Min Temperature 0 °F 15 °F -10 °F (1981)
Degree Days  
Heating Degree Days 56    
Moisture  
Dew Point 4 °F    
Average Humidity 74    
Maximum Humidity 86    
Minimum Humidity 67    
Precipitation  
Precipitation 0.00 in - - ()
Sea Level Pressure  
Sea Level Pressure 30.14 in    
Wind  
Wind Speed 5 mph (SSW)    
Max Wind Speed 12 mph    
Max Gust Speed -    
Visibility 9 miles    
Events Snow    
Averages and records for this station are not official NWS values.
T = Trace of Precipitation, MM = Missing Value Source: NWS Daily Summary

Daily Weather History Graph

Daily Weather History Graph

Search for Another Location

Airport or City:

Trip Planner

Search our weather history database for the weather conditions in past years. The results will help you decide how hot, cold, wet, or windy it might be!

Date:

Astronomy

Feb. 12, 2014 Rise Set
Actual Time 6:54 AM CST 5:20 PM CST
Civil Twilight 6:25 AM CST 5:49 PM CST
Nautical Twilight 5:51 AM CST 6:23 PM CST
Astronomical Twilight 5:19 AM CST 6:56 PM CST
Moon 3:32 PM CST (2/12) 5:12 AM CST (2/12)
Length of Visible Light 11h 24m
Length of Day
10h 25m
Waxing Gibbous, 95% of the Moon is Illuminated
Feb 12
Waxing Gibbous
Feb 14
Full
Feb 22
Last Quarter
Mar 1
New
Mar 8
First Quarter

Hourly Weather History & Observations

Time (CST) Temp. Windchill Dew Point Humidity Pressure Visibility Wind Dir Wind Speed Gust Speed Precip Events Conditions
12:15 AM -0.4 °F -12.0 °F -7.6 °F 72% 30.32 in 10.0 mi SSW 5.8 mph - N/A   Clear
12:35 AM -0.4 °F -8.3 °F -7.6 °F 72% 30.32 in 10.0 mi SSW 3.5 mph - N/A   Clear
12:55 AM -0.4 °F -8.3 °F -7.6 °F 72% 30.32 in 10.0 mi SSW 3.5 mph - N/A   Clear
1:15 AM -0.4 °F -10.4 °F -7.6 °F 72% 30.31 in 10.0 mi South 4.6 mph - N/A   Clear
1:35 AM -0.4 °F -8.3 °F -7.6 °F 72% 30.30 in 10.0 mi South 3.5 mph - N/A   Clear
1:55 AM -0.4 °F -14.7 °F -7.6 °F 72% 30.29 in 10.0 mi SSE 8.1 mph - N/A   Scattered Clouds
2:15 AM -0.4 °F -12.0 °F -5.8 °F 78% 30.29 in 10.0 mi South 5.8 mph - N/A   Mostly Cloudy
2:35 AM 1.4 °F -11.3 °F -5.8 °F 72% 30.27 in 10.0 mi South 6.9 mph - N/A   Mostly Cloudy
2:55 AM 1.4 °F -8.3 °F -5.8 °F 72% 30.27 in 10.0 mi South 4.6 mph - N/A   Mostly Cloudy
3:15 AM 1.4 °F -9.9 °F -4.0 °F 78% 30.26 in 10.0 mi South 5.8 mph - N/A   Scattered Clouds
3:35 AM 1.4 °F -9.9 °F -4.0 °F 78% 30.25 in 10.0 mi South 5.8 mph - N/A   Clear
3:55 AM 1.4 °F -11.3 °F -4.0 °F 78% 30.25 in 10.0 mi South 6.9 mph - N/A   Scattered Clouds
4:15 AM 1.4 °F -11.3 °F -4.0 °F 78% 30.25 in 10.0 mi South 6.9 mph - N/A   Scattered Clouds
4:35 AM 1.4 °F -12.5 °F -4.0 °F 78% 30.25 in 10.0 mi South 8.1 mph - N/A   Mostly Cloudy
5:45 AM 1.4 °F -15.3 °F -2.2 °F 85% 30.23 in 10.0 mi SSE 11.5 mph - N/A   Overcast
6:45 AM 3.2 °F -13.1 °F -0.4 °F 85% 30.22 in 10.0 mi SSW 11.5 mph - N/A   Overcast
7:45 AM 5.0 °F -10.8 °F -0.4 °F 78% 30.20 in 10.0 mi South 11.5 mph - N/A   Overcast
8:45 AM 6.8 °F -8.6 °F -0.4 °F 72% 30.19 in 10.0 mi SSW 11.5 mph - N/A   Overcast
9:45 AM 10.4 °F -0.4 °F 1.4 °F 67% 30.19 in 2.0 mi SSW 6.9 mph - N/A Snow Light Snow
10:45 AM 12.2 °F 4.3 °F 6.8 °F 79% 30.18 in 2.5 mi South 4.6 mph - N/A Snow Light Snow
11:45 AM 15.8 °F 8.6 °F 8.6 °F 73% 30.15 in 2.5 mi SSW 4.6 mph - N/A Snow Light Snow
12:45 PM 15.8 °F 6.1 °F 10.4 °F 79% 30.12 in 2.5 mi SW 6.9 mph - N/A   Haze
1:45 PM 17.6 °F 7.3 °F 10.4 °F 73% 30.09 in 4.0 mi SW 8.1 mph - N/A Snow Light Snow
2:00 PM 17.6 °F 8.2 °F 12.2 °F 79% 30.09 in 2.0 mi SSW 6.9 mph - N/A Snow Light Snow
2:45 PM 17.6 °F 8.2 °F 12.2 °F 79% 30.07 in 1.8 mi SW 6.9 mph - N/A Snow Light Snow
3:45 PM 17.6 °F 12.3 °F 14.0 °F 86% 30.06 in 3.0 mi SSW 3.5 mph - N/A Snow Light Snow
4:45 PM 17.6 °F 12.3 °F 12.2 °F 79% 30.06 in 10.0 mi South 3.5 mph - N/A   Overcast
5:45 PM 17.6 °F 12.3 °F 12.2 °F 79% 30.07 in 10.0 mi South 3.5 mph - N/A   Overcast
6:45 PM 17.6 °F 12.3 °F 12.2 °F 79% 30.07 in 10.0 mi SW 3.5 mph - N/A   Overcast
7:45 PM 17.6 °F 10.7 °F 10.4 °F 73% 30.02 in 10.0 mi South 4.6 mph - N/A   Overcast
8:15 PM 17.6 °F 10.7 °F 10.4 °F 73% 30.02 in 10.0 mi South 4.6 mph - N/A   Overcast
8:35 PM 17.6 °F - 10.4 °F 73% 30.01 in 10.0 mi Calm Calm - N/A   Overcast
8:45 PM 17.6 °F - 8.6 °F 68% 30.01 in 10.0 mi Calm Calm - N/A   Overcast
8:55 PM 17.6 °F - 10.4 °F 73% 30.02 in 10.0 mi Calm Calm - N/A   Overcast
9:15 PM 17.6 °F - 10.4 °F 73% 30.01 in 10.0 mi Calm Calm - N/A   Overcast
9:35 PM 17.6 °F - 8.6 °F 68% 30.01 in 10.0 mi Calm Calm - N/A   Overcast
9:55 PM 17.6 °F - 8.6 °F 68% 30.01 in 10.0 mi Calm Calm - N/A   Overcast
10:15 PM 17.6 °F - 8.6 °F 68% 30.00 in 10.0 mi Calm Calm - N/A   Overcast
10:35 PM 17.6 °F - 8.6 °F 68% 30.00 in 10.0 mi Calm Calm - N/A   Overcast
10:55 PM 17.6 °F 12.3 °F 8.6 °F 68% 30.00 in 10.0 mi SSW 3.5 mph - N/A   Overcast
11:15 PM 17.6 °F 12.3 °F 8.6 °F 68% 30.00 in 10.0 mi SSW 3.5 mph - N/A   Overcast
11:35 PM 17.6 °F - 8.6 °F 68% 29.99 in 10.0 mi Calm Calm - N/A   Overcast
11:55 PM 17.6 °F - 8.6 °F 68% 29.99 in 10.0 mi Calm Calm - N/A   Overcast